Location: Krakow
(50.0212°N, 19.9423°E)
Time: 22:53:44
(UTC+02:00)

NOAA 18 - Pass Details

Date: 16 August 2024
Orbit: 837 x 859 km, 98.9° (Epoch: 19 September)

Event Time Altitude Azimuth Distance (km) Brightness Sun altitude
Exits shadow 23:22:22 34° 221° (SW) 1,387 6.1 -24.1°
Maximum altitude 23:24:03 43° 262° (W) 1,199 6.0 -24.2°
Drops below altitude 10° 23:29:20 10° 333° (NNW) 2,506 8.7 -24.5°
Sets 23:31:51 0° 340° (NNW) 3,447 9.8 -24.7°
